Location: Bruderhein
(53.8035°N, 112.9265°W)
Time: 19:25:11
(UTC+00:00)

Max Valier Satellite - Pass Details

Date: 10 April 2023
Orbit: 445 x 458 km, 97.2° (Epoch: 31 May)

Event Time Altitude Azimuth Distance (km) Brightness Sun altitude
Rises 03:40:21 0° 200° (SSW) 2,453 ? -11.4°
Reaches altitude 10° 03:42:43 10° 217° (SW) 1,591 ? -11.7°
Maximum altitude 03:45:22 21° 268° (W) 1,092 ? -12.1°
Drops below altitude 10° 03:48:03 10° 319° (NW) 1,614 ? -12.4°
Sets 03:50:29 0° 336° (NNW) 2,501 ? -12.7°
